STARLINK-5404

decayed
NORAD ID: 54769 Int'l Des: 2022-175 Owner: SPXS Country: US Constellation: starlink
LEOCIRCULAR

关于 STARLINK-5404

正在加载描述...

高度历史

Altitude vs Time

uPlot chart will show altitude changes over time

两行轨道根数

1 54769U 22175M 25003.70123674 .10086354 12467-4 53224-3 0 9998
2 54769 53.1991 150.8373 0004162 314.2337 63.2999 16.42536902113173
Epoch: Jan 3, 2025 • Age: 6114 hours

当前状态

Position data unavailable
发射日期 Dec 17, 2022
运行时间 2.7 years
衰减日期 Jan 3, 2025
类型 internet

技术详情

分类 Payload
质量 305.00 kg
干质量 290.00 kg
总质量 305.00 kg
长度 0.20 m
直径 2.80 m
跨度 9.00 m
形状 Box + pan
制造商 SPXS
平台类型 Starlink
阶段状态 Unknown Transfer Status
所有者/国家 SPXS/US

大型星座

Loading constellations...